| time (UTC) | temp F | wind direction | speed MPH | gust MPH | rain 1hr in | rain 24hr in | rain mn in | humidity % | barometer mb |
| 20260902095202 | 63 | 252 | 5.0 | 11.0 | 0.00 | 0.00 | 0.00 | 84 | 1014.1 |
| 20260902094703 | 63 | 265 | 5.0 | 11.0 | 0.00 | 0.00 | 0.00 | 84 | 1014.1 |
| 20260902094203 | 62 | 212 | 6.0 | 11.0 | 0.00 | 0.00 | 0.00 | 85 | 1014.1 |
| 20260902093704 | 62 | 228 | 4.0 | 11.0 | 0.00 | 0.00 | 0.00 | 84 | 1014.2 |
| 20260902093202 | 62 | 233 | 6.0 | 14.0 | 0.00 | 0.00 | 0.00 | 84 | 1014.2 |
| 20260902092703 | 62 | 216 | 7.0 | 14.0 | 0.00 | 0.00 | 0.00 | 83 | 1014.2 |
| 20260902092432 | 62 | 231 | 5.0 | 11.0 | 0.00 | 0.00 | 0.00 | 83 | 1014.1 |
| 20260902091702 | 62 | 274 | 6.0 | 11.0 | 0.00 | 0.00 | 0.00 | 83 | 1014.1 |
| 20260902091203 | 62 | 227 | 6.0 | 10.0 | 0.00 | 0.00 | 0.00 | 83 | 1014.2 |
| 20260902090704 | 62 | 262 | 5.0 | 10.0 | 0.00 | 0.00 | 0.00 | 84 | 1014.1 |
| 20260902090203 | 62 | 234 | 6.0 | 12.0 | 0.00 | 0.00 | 0.00 | 84 | 1014.1 |
| 20260902085704 | 62 | 210 | 8.0 | 12.0 | 0.00 | 0.00 | 0.00 | 85 | 1014.1 |
| 20260902085204 | 62 | 204 | 6.0 | 10.0 | 0.00 | 0.00 | 0.00 | 85 | 1014.0 |
| 20260902084922 | 62 | 212 | 5.0 | 11.0 | 0.00 | 0.00 | 0.00 | 85 | 1014.2 |
| 20260902084203 | 61 | 248 | 5.0 | 11.0 | 0.00 | 0.00 | 0.00 | 85 | 1014.2 |
| 20260902083704 | 61 | 214 | 6.0 | 11.0 | 0.00 | 0.00 | 0.00 | 85 | 1014.2 |
| 20260902083203 | 61 | 233 | 5.0 | 13.0 | 0.00 | 0.00 | 0.00 | 85 | 1014.2 |
| 20260902082921 | 61 | 235 | 8.0 | 13.0 | 0.00 | 0.00 | 0.00 | 85 | 1014.2 |
| 20260902082202 | 61 | 233 | 7.0 | 12.0 | 0.00 | 0.00 | 0.00 | 86 | 1014.1 |
| 20260902081703 | 61 | 243 | 6.0 | 11.0 | 0.00 | 0.00 | 0.00 | 86 | 1014.3 |
| 20260902081203 | 61 | 241 | 6.0 | 12.0 | 0.00 | 0.00 | 0.00 | 85 | 1014.3 |
| 20260902080703 | 61 | 241 | 5.0 | 15.0 | 0.00 | 0.00 | 0.00 | 85 | 1014.3 |
| 20260902080202 | 61 | 231 | 8.0 | 15.0 | 0.00 | 0.00 | 0.00 | 85 | 1014.2 |
| 20260902075702 | 61 | 224 | 9.0 | 13.0 | 0.00 | 0.00 | 0.00 | 85 | 1014.1 |
| 20260902075202 | 61 | 214 | 5.0 | 13.0 | 0.00 | 0.00 | 0.00 | 86 | 1014.1 |
| 20260902074702 | 61 | 258 | 6.0 | 13.0 | 0.00 | 0.00 | 0.00 | 86 | 1014.1 |
| 20260902074202 | 61 | 231 | 6.0 | 11.0 | 0.00 | 0.00 | 0.00 | 86 | 1014.0 |
| 20260902073703 | 61 | 252 | 7.0 | 13.0 | 0.00 | 0.00 | 0.00 | 86 | 1014.0 |
| 20260902073202 | 61 | 220 | 8.0 | 13.0 | 0.00 | 0.00 | 0.00 | 86 | 1013.9 |
| 20260902072705 | 61 | 207 | 5.0 | 12.0 | 0.00 | 0.00 | 0.00 | 87 | 1013.9 |
| 20260902072203 | 60 | 193 | 6.0 | 12.0 | 0.00 | 0.00 | 0.00 | 87 | 1014.0 |
| 20260902071703 | 60 | 199 | 6.0 | 12.0 | 0.00 | 0.00 | 0.00 | 88 | 1013.9 |
| 20260902071202 | 60 | 214 | 6.0 | 12.0 | 0.00 | 0.00 | 0.00 | 88 | 1014.0 |
| 20260902070705 | 60 | 240 | 5.0 | 10.0 | 0.00 | 0.00 | 0.00 | 89 | 1014.0 |
| 20260902070200 | 59 | 217 | 5.0 | 10.0 | 0.00 | 0.00 | 0.00 | 89 | 1014.0 |
| 20260902065700 | 59 | 224 | 6.0 | 10.0 | 0.00 | 0.00 | 0.00 | 89 | 1014.0 |
| 20260902065201 | 59 | 200 | 4.0 | 10.0 | 0.00 | 0.00 | 0.00 | 90 | 1013.9 |
| 20260902064658 | 59 | 221 | 4.0 | 10.0 | 0.00 | 0.00 | 0.00 | 90 | 1013.9 |
| 20260902064158 | 58 | 235 | 5.0 | 10.0 | 0.00 | 0.00 | 0.00 | 90 | 1013.8 |
| 20260902063657 | 58 | 227 | 5.0 | 13.0 | 0.00 | 0.00 | 0.00 | 90 | 1013.8 |
| 20260902063156 | 58 | 220 | 7.0 | 13.0 | 0.00 | 0.00 | 0.00 | 91 | 1013.8 |
| 20260902062916 | 58 | 230 | 4.0 | 9.0 | 0.00 | 0.00 | 0.00 | 91 | 1013.8 |
| 20260902062155 | 58 | 216 | 4.0 | 7.0 | 0.00 | 0.00 | 0.00 | 91 | 1013.8 |
| 20260902061654 | 58 | 220 | 4.0 | 7.0 | 0.00 | 0.00 | 0.00 | 91 | 1013.9 |
| 20260902061412 | 58 | 206 | 4.0 | 10.0 | 0.00 | 0.00 | 0.00 | 91 | 1013.8 |
| 20260902060652 | 58 | 209 | 5.0 | 10.0 | 0.00 | 0.00 | 0.00 | 91 | 1013.8 |
| 20260902055653 | 57 | 162 | 2.0 | 4.0 | 0.00 | 0.00 | 0.00 | 91 | 1013.7 |
| 20260902055150 | 57 | 151 | 2.0 | 3.0 | 0.00 | 0.00 | 0.00 | 91 | 1013.8 |
| 20260902054651 | 57 | 147 | 1.0 | 3.0 | 0.00 | 0.00 | 0.00 | 91 | 1013.8 |
| 20260902054150 | 57 | 147 | 2.0 | 3.0 | 0.00 | 0.00 | 0.00 | 91 | 1013.8 |
| 20260902053648 | 57 | 147 | 1.0 | 3.0 | 0.00 | 0.00 | 0.00 | 91 | 1013.8 |
| 20260902053145 | 57 | 147 | 1.0 | 4.0 | 0.00 | 0.00 | 0.00 | 91 | 1013.6 |
| 20260902052145 | 57 | 147 | 2.0 | 4.0 | 0.00 | 0.00 | 0.00 | 91 | 1013.5 |
| 20260902051643 | 57 | 147 | 2.0 | 5.0 | 0.00 | 0.00 | 0.00 | 91 | 1013.5 |
| 20260902051408 | 57 | 147 | 3.0 | 7.0 | 0.00 | 0.00 | 0.00 | 91 | 1013.4 |
| 20260902050641 | 57 | 152 | 5.0 | 9.0 | 0.00 | 0.00 | 0.00 | 91 | 1013.4 |
| 20260902050140 | 57 | 157 | 5.0 | 9.0 | 0.00 | 0.00 | 0.00 | 91 | 1013.3 |
| 20260902045640 | 57 | 165 | 4.0 | 7.0 | 0.00 | 0.00 | 0.00 | 91 | 1013.4 |
| 20260902045142 | 57 | 183 | 4.0 | 7.0 | 0.00 | 0.00 | 0.00 | 90 | 1013.5 |
| 20260902044639 | 57 | 180 | 4.0 | 6.0 | 0.00 | 0.00 | 0.00 | 90 | 1013.5 |
| 20260902044136 | 57 | 186 | 3.0 | 5.0 | 0.00 | 0.00 | 0.00 | 90 | 1013.6 |
| 20260902043638 | 57 | 199 | 2.0 | 5.0 | 0.00 | 0.00 | 0.00 | 90 | 1013.7 |
| 20260902043359 | 57 | 199 | 3.0 | 5.0 | 0.00 | 0.00 | 0.00 | 90 | 1013.7 |
| 20260902042633 | 57 | 199 | 3.0 | 7.0 | 0.00 | 0.00 | 0.00 | 90 | 1013.6 |
| 20260902042133 | 57 | 204 | 4.0 | 7.0 | 0.00 | 0.00 | 0.00 | 90 | 1013.5 |
| 20260902041637 | 57 | 210 | 3.0 | 7.0 | 0.00 | 0.00 | 0.00 | 90 | 1013.6 |
| 20260902041412 | 57 | 219 | 2.0 | 6.0 | 0.00 | 0.00 | 0.00 | 89 | 1013.6 |
| 20260902040637 | 57 | 219 | 5.0 | 6.0 | 0.00 | 0.00 | 0.00 | 89 | 1013.5 |
| 20260902035633 | 57 | 230 | 5.0 | 9.0 | 0.00 | 0.00 | 0.00 | 89 | 1013.7 |
| 20260902035134 | 58 | 220 | 4.0 | 9.0 | 0.00 | 0.00 | 0.00 | 89 | 1013.7 |
| 20260902034633 | 58 | 220 | 4.0 | 9.0 | 0.00 | 0.00 | 0.00 | 89 | 1013.7 |
| 20260902034132 | 58 | 213 | 4.0 | 9.0 | 0.00 | 0.00 | 0.00 | 89 | 1013.7 |
| 20260902033633 | 58 | 203 | 4.0 | 9.0 | 0.00 | 0.00 | 0.00 | 89 | 1013.8 |
| 20260902033134 | 58 | 207 | 5.0 | 7.0 | 0.00 | 0.00 | 0.00 | 88 | 1013.7 |
| 20260902032643 | 58 | 212 | 4.0 | 7.0 | 0.00 | 0.00 | 0.00 | 88 | 1013.6 |
| 20260902031900 | 58 | 213 | 4.0 | 9.0 | 0.00 | 0.00 | 0.00 | 88 | 1013.7 |
| 20260902031400 | 58 | 224 | 5.0 | 7.0 | 0.00 | 0.00 | 0.00 | 88 | 1013.8 |
| 20260902030848 | 58 | 241 | 4.0 | 7.0 | 0.00 | 0.00 | 0.00 | 88 | 1013.8 |
| 20260902030130 | 58 | 234 | 5.0 | 7.0 | 0.00 | 0.00 | 0.00 | 88 | 1013.9 |
| 20260902025629 | 58 | 206 | 4.0 | 7.0 | 0.00 | 0.00 | 0.00 | 88 | 1013.8 |
| 20260902025129 | 58 | 233 | 4.0 | 7.0 | 0.00 | 0.00 | 0.00 | 87 | 1014.0 |
| 20260902024627 | 58 | 230 | 4.0 | 7.0 | 0.00 | 0.00 | 0.00 | 87 | 1013.8 |
| 20260902024128 | 58 | 207 | 3.0 | 6.0 | 0.00 | 0.00 | 0.00 | 87 | 1014.0 |
| 20260902023850 | 58 | 197 | 5.0 | 6.0 | 0.00 | 0.00 | 0.00 | 87 | 1014.1 |
| 20260902023125 | 58 | 214 | 3.0 | 5.0 | 0.00 | 0.00 | 0.00 | 87 | 1014.1 |
| 20260902022625 | 59 | 214 | 2.0 | 6.0 | 0.00 | 0.00 | 0.00 | 87 | 1014.1 |
| 20260902022126 | 59 | 202 | 3.0 | 9.0 | 0.00 | 0.00 | 0.00 | 87 | 1014.1 |
| 20260902021626 | 59 | 216 | 4.0 | 11.0 | 0.00 | 0.00 | 0.00 | 86 | 1014.1 |
| 20260902021128 | 59 | 212 | 4.0 | 11.0 | 0.00 | 0.00 | 0.00 | 86 | 1014.2 |
| 20260902020625 | 59 | 252 | 4.0 | 11.0 | 0.00 | 0.00 | 0.00 | 86 | 1014.3 |
| 20260902020121 | 59 | 240 | 4.0 | 11.0 | 0.00 | 0.00 | 0.00 | 86 | 1014.2 |
| 20260902015621 | 59 | 243 | 6.0 | 12.0 | 0.00 | 0.00 | 0.00 | 86 | 1014.2 |
| 20260902015121 | 59 | 241 | 5.0 | 12.0 | 0.00 | 0.00 | 0.00 | 86 | 1014.0 |
| 20260902014620 | 59 | 240 | 5.0 | 10.0 | 0.00 | 0.00 | 0.00 | 86 | 1014.1 |
| 20260902014119 | 59 | 250 | 4.0 | 10.0 | 0.00 | 0.00 | 0.00 | 86 | 1014.2 |
| 20260902013620 | 59 | 228 | 4.0 | 7.0 | 0.00 | 0.00 | 0.00 | 86 | 1014.2 |
| 20260902013117 | 59 | 217 | 3.0 | 7.0 | 0.00 | 0.00 | 0.00 | 86 | 1014.2 |
| 20260902012618 | 59 | 217 | 4.0 | 9.0 | 0.00 | 0.00 | 0.00 | 86 | 1014.2 |
| 20260902012117 | 59 | 196 | 5.0 | 9.0 | 0.00 | 0.00 | 0.00 | 85 | 1014.1 |
| 20260902011843 | 59 | 235 | 4.0 | 9.0 | 0.00 | 0.00 | 0.00 | 85 | 1014.2 |
| 20260902011116 | 59 | 250 | 4.0 | 10.0 | 0.00 | 0.00 | 0.00 | 85 | 1014.2 |
| 20260902010842 | 59 | 247 | 6.0 | 10.0 | 0.00 | 0.00 | 0.00 | 85 | 1014.1 |
| 20260902010114 | 59 | 230 | 5.0 | 9.0 | 0.00 | 0.00 | 0.00 | 85 | 1014.2 |
| 20260902005615 | 59 | 231 | 5.0 | 10.0 | 0.00 | 0.00 | 0.00 | 85 | 1014.2 |
| 20260902005114 | 59 | 235 | 6.0 | 10.0 | 0.00 | 0.00 | 0.00 | 85 | 1014.2 |
| 20260902004611 | 59 | 212 | 4.0 | 9.0 | 0.00 | 0.00 | 0.00 | 85 | 1014.2 |
| 20260902004113 | 59 | 243 | 5.0 | 9.0 | 0.00 | 0.00 | 0.00 | 84 | 1014.2 |
| 20260902003611 | 59 | 230 | 5.0 | 9.0 | 0.00 | 0.00 | 0.00 | 84 | 1014.3 |
| 20260902003110 | 60 | 231 | 4.0 | 9.0 | 0.00 | 0.00 | 0.00 | 84 | 1014.4 |
| 20260902002610 | 60 | 240 | 6.0 | 9.0 | 0.00 | 0.00 | 0.00 | 84 | 1014.4 |
| 20260902002109 | 60 | 258 | 2.0 | 9.0 | 0.00 | 0.00 | 0.00 | 84 | 1014.5 |
| 20260902001609 | 60 | 258 | 5.0 | 9.0 | 0.00 | 0.00 | 0.00 | 84 | 1014.5 |
| 20260902001331 | 60 | 258 | 3.0 | 10.0 | 0.00 | 0.00 | 0.00 | 84 | 1014.5 |
| 20260902000606 | 60 | 243 | 4.0 | 10.0 | 0.00 | 0.00 | 0.00 | 84 | 1014.6 |
| 20260902000106 | 60 | 234 | 6.0 | 10.0 | 0.00 | 0.00 | 0.00 | 84 | 1014.5 |
| 20260901235607 | 60 | 227 | 4.0 | 10.0 | 0.00 | 0.00 | 0.00 | 84 | 1014.5 |
| 20260901235105 | 60 | 234 | 5.0 | 11.0 | 0.00 | 0.00 | 0.00 | 84 | 1014.5 |
| 20260901234605 | 60 | 216 | 4.0 | 12.0 | 0.00 | 0.00 | 0.00 | 83 | 1014.6 |
| 20260901234105 | 60 | 196 | 5.0 | 12.0 | 0.00 | 0.00 | 0.00 | 83 | 1014.6 |
| 20260901233829 | 60 | 220 | 4.0 | 12.0 | 0.00 | 0.00 | 0.00 | 83 | 1014.5 |
| 20260901233106 | 60 | 226 | 4.0 | 10.0 | 0.00 | 0.00 | 0.00 | 83 | 1014.6 |
| 20260901232607 | 60 | 224 | 5.0 | 10.0 | 0.00 | 0.00 | 0.00 | 83 | 1014.6 |
| 20260901232105 | 60 | 227 | 4.0 | 9.0 | 0.00 | 0.00 | 0.00 | 83 | 1014.6 |
| 20260901231605 | 60 | 227 | 5.0 | 10.0 | 0.00 | 0.00 | 0.00 | 83 | 1014.6 |
| 20260901231107 | 60 | 223 | 5.0 | 10.0 | 0.00 | 0.00 | 0.00 | 82 | 1014.7 |
| 20260901230605 | 60 | 223 | 6.0 | 11.0 | 0.00 | 0.00 | 0.00 | 82 | 1014.7 |
| 20260901230105 | 60 | 234 | 7.0 | 11.0 | 0.00 | 0.00 | 0.00 | 82 | 1014.8 |
| 20260901225605 | 60 | 234 | 4.0 | 11.0 | 0.00 | 0.00 | 0.00 | 82 | 1014.8 |
| 20260901225106 | 61 | 217 | 3.0 | 9.0 | 0.00 | 0.00 | 0.00 | 82 | 1014.9 |
| 20260901224606 | 61 | 209 | 3.0 | 10.0 | 0.00 | 0.00 | 0.00 | 82 | 1014.9 |
| 20260901224106 | 61 | 233 | 4.0 | 10.0 | 0.00 | 0.00 | 0.00 | 82 | 1014.9 |
| 20260901223827 | 61 | 228 | 4.0 | 12.0 | 0.00 | 0.00 | 0.00 | 82 | 1014.9 |
| 20260901223105 | 61 | 235 | 6.0 | 12.0 | 0.00 | 0.00 | 0.00 | 82 | 1014.9 |
| 20260901222605 | 61 | 241 | 6.0 | 10.0 | 0.00 | 0.00 | 0.00 | 82 | 1014.8 |
| 20260901222105 | 61 | 251 | 4.0 | 11.0 | 0.00 | 0.00 | 0.00 | 82 | 1014.8 |
| 20260901221825 | 61 | 252 | 6.0 | 12.0 | 0.00 | 0.00 | 0.00 | 82 | 1014.8 |
| 20260901220606 | 61 | 219 | 5.0 | 10.0 | 0.00 | 0.00 | 0.00 | 83 | 1014.8 |
| 20260901220332 | 61 | 235 | 4.0 | 9.0 | 0.00 | 0.00 | 0.00 | 83 | 1014.8 |
| 20260901215604 | 61 | 223 | 5.0 | 9.0 | 0.00 | 0.00 | 0.00 | 83 | 1014.8 |
| 20260901215104 | 61 | 209 | 4.0 | 9.0 | 0.00 | 0.00 | 0.00 | 83 | 1014.8 |
| 20260901214603 | 61 | 226 | 3.0 | 9.0 | 0.00 | 0.00 | 0.00 | 84 | 1014.8 |
| 20260901214325 | 61 | 226 | 4.0 | 9.0 | 0.00 | 0.00 | 0.00 | 84 | 1014.9 |
| 20260901213602 | 61 | 216 | 4.0 | 9.0 | 0.00 | 0.00 | 0.00 | 84 | 1014.9 |
| 20260901213102 | 61 | 237 | 3.0 | 6.0 | 0.00 | 0.00 | 0.00 | 84 | 1014.9 |
| 20260901212604 | 61 | 240 | 3.0 | 9.0 | 0.00 | 0.00 | 0.00 | 84 | 1014.9 |
| 20260901212103 | 61 | 240 | 5.0 | 9.0 | 0.00 | 0.00 | 0.00 | 84 | 1015.0 |
| 20260901211603 | 61 | 209 | 5.0 | 9.0 | 0.00 | 0.00 | 0.00 | 85 | 1015.0 |
| 20260901211102 | 61 | 219 | 4.0 | 9.0 | 0.00 | 0.00 | 0.00 | 85 | 1015.1 |
| 20260901210602 | 61 | 204 | 5.0 | 9.0 | 0.00 | 0.00 | 0.00 | 85 | 1015.1 |
| 20260901205602 | 61 | 223 | 3.0 | 6.0 | 0.00 | 0.00 | 0.00 | 84 | 1015.1 |
| 20260901205102 | 61 | 223 | 3.0 | 7.0 | 0.00 | 0.00 | 0.00 | 84 | 1015.1 |
| 20260901204602 | 62 | 231 | 3.0 | 7.0 | 0.00 | 0.00 | 0.00 | 84 | 1015.1 |
| 20260901204101 | 62 | 231 | 4.0 | 6.0 | 0.00 | 0.00 | 0.00 | 84 | 1015.2 |
| 20260901203829 | 62 | 247 | 3.0 | 6.0 | 0.00 | 0.00 | 0.00 | 84 | 1015.0 |
| 20260901203059 | 62 | 250 | 3.0 | 6.0 | 0.00 | 0.00 | 0.00 | 84 | 1015.1 |
| 20260901202822 | 62 | 248 | 3.0 | 6.0 | 0.00 | 0.00 | 0.00 | 84 | 1015.0 |
| 20260901202057 | 62 | 250 | 2.0 | 5.0 | 0.00 | 0.00 | 0.00 | 84 | 1015.2 |
| 20260901201557 | 62 | 248 | 3.0 | 9.0 | 0.00 | 0.00 | 0.00 | 83 | 1015.2 |
| 20260901201328 | 62 | 245 | 4.0 | 9.0 | 0.00 | 0.00 | 0.00 | 83 | 1015.1 |
| 20260901200554 | 62 | 251 | 5.0 | 10.0 | 0.00 | 0.00 | 0.00 | 83 | 1015.2 |
| 20260901200056 | 62 | 255 | 5.0 | 10.0 | 0.00 | 0.00 | 0.00 | 83 | 1015.0 |
| 20260901195551 | 62 | 238 | 4.0 | 9.0 | 0.00 | 0.00 | 0.00 | 83 | 1015.0 |
| 20260901195053 | 62 | 244 | 5.0 | 9.0 | 0.00 | 0.00 | 0.00 | 82 | 1014.9 |
| 20260901194550 | 62 | 255 | 6.0 | 9.0 | 0.00 | 0.00 | 0.00 | 82 | 1014.9 |
| 20260901194050 | 62 | 255 | 5.0 | 7.0 | 0.00 | 0.00 | 0.00 | 82 | 1014.9 |
| 20260901193551 | 62 | 247 | 4.0 | 7.0 | 0.00 | 0.00 | 0.00 | 82 | 1014.8 |
| 20260901193048 | 62 | 241 | 4.0 | 10.0 | 0.00 | 0.00 | 0.00 | 82 | 1014.8 |
| 20260901192549 | 62 | 258 | 6.0 | 11.0 | 0.00 | 0.00 | 0.00 | 81 | 1014.9 |
| 20260901192048 | 62 | 233 | 5.0 | 11.0 | 0.00 | 0.00 | 0.00 | 81 | 1014.8 |
| 20260901191548 | 62 | 233 | 3.0 | 10.0 | 0.00 | 0.00 | 0.00 | 81 | 1014.8 |
| 20260901191046 | 62 | 237 | 4.0 | 9.0 | 0.00 | 0.00 | 0.00 | 80 | 1014.8 |
| 20260901190548 | 63 | 247 | 5.0 | 10.0 | 0.00 | 0.00 | 0.00 | 80 | 1014.7 |
| 20260901190047 | 63 | 271 | 5.0 | 10.0 | 0.00 | 0.00 | 0.00 | 79 | 1014.7 |
| 20260901185545 | 63 | 252 | 5.0 | 11.0 | 0.00 | 0.00 | 0.00 | 79 | 1014.7 |
| 20260901185309 | 63 | 255 | 6.0 | 12.0 | 0.00 | 0.00 | 0.00 | 79 | 1014.7 |
| 20260901183543 | 63 | 259 | 7.0 | 12.0 | 0.00 | 0.00 | 0.00 | 78 | 1014.7 |
| 20260901183042 | 63 | 254 | 5.0 | 15.0 | 0.00 | 0.00 | 0.00 | 77 | 1014.7 |
| 20260901182540 | 63 | 241 | 5.0 | 15.0 | 0.00 | 0.00 | 0.00 | 77 | 1014.6 |
| 20260901182039 | 63 | 254 | 9.0 | 15.0 | 0.00 | 0.00 | 0.00 | 77 | 1014.7 |
| 20260901181540 | 63 | 255 | 8.0 | 15.0 | 0.00 | 0.00 | 0.00 | 77 | 1014.6 |
| 20260901181040 | 63 | 265 | 6.0 | 14.0 | 0.00 | 0.00 | 0.00 | 77 | 1014.7 |
| 20260901180801 | 64 | 271 | 7.0 | 14.0 | 0.00 | 0.00 | 0.00 | 77 | 1014.6 |
| 20260901180040 | 63 | 250 | 6.0 | 13.0 | 0.00 | 0.00 | 0.00 | 77 | 1014.5 |
| 20260901175801 | 63 | 258 | 6.0 | 13.0 | 0.00 | 0.00 | 0.00 | 77 | 1014.6 |
| 20260901175040 | 63 | 244 | 7.0 | 13.0 | 0.00 | 0.00 | 0.00 | 77 | 1014.5 |
| 20260901174804 | 64 | 245 | 8.0 | 14.0 | 0.00 | 0.00 | 0.00 | 76 | 1014.6 |
| 20260901174038 | 64 | 250 | 9.0 | 15.0 | 0.00 | 0.00 | 0.00 | 76 | 1014.6 |
| 20260901173539 | 64 | 261 | 9.0 | 15.0 | 0.00 | 0.00 | 0.00 | 75 | 1014.6 |
| 20260901173043 | 64 | 255 | 7.0 | 14.0 | 0.00 | 0.00 | 0.00 | 75 | 1014.7 |
| 20260901172545 | 64 | 265 | 8.0 | 13.0 | 0.00 | 0.00 | 0.00 | 75 | 1014.7 |
| 20260901172043 | 64 | 245 | 5.0 | 12.0 | 0.00 | 0.00 | 0.00 | 76 | 1014.7 |
| 20260901171541 | 64 | 250 | 5.0 | 11.0 | 0.00 | 0.00 | 0.00 | 76 | 1014.7 |
| 20260901171044 | 64 | 272 | 6.0 | 14.0 | 0.00 | 0.00 | 0.00 | 75 | 1014.6 |
| 20260901170545 | 64 | 258 | 7.0 | 14.0 | 0.00 | 0.00 | 0.00 | 74 | 1014.7 |
| 20260901170040 | 64 | 282 | 7.0 | 19.0 | 0.00 | 0.00 | 0.00 | 74 | 1014.6 |
| 20260901165757 | 64 | 258 | 11.0 | 19.0 | 0.00 | 0.00 | 0.00 | 73 | 1014.9 |
| 20260901165036 | 64 | 258 | 9.0 | 18.0 | 0.00 | 0.00 | 0.00 | 73 | 1014.6 |
| 20260901164803 | 65 | 251 | 9.0 | 18.0 | 0.00 | 0.00 | 0.00 | 72 | 1014.4 |
| 20260901164033 | 65 | 240 | 11.0 | 18.0 | 0.00 | 0.00 | 0.00 | 71 | 1014.5 |
| 20260901163532 | 65 | 237 | 11.0 | 18.0 | 0.00 | 0.00 | 0.00 | 72 | 1014.4 |
| 20260901163256 | 65 | 268 | 9.0 | 19.0 | 0.00 | 0.00 | 0.00 | 72 | 1014.6 |
| 20260901162534 | 65 | 217 | 11.0 | 21.0 | 0.00 | 0.00 | 0.00 | 72 | 1014.5 |
| 20260901162034 | 65 | 288 | 13.0 | 21.0 | 0.00 | 0.00 | 0.00 | 72 | 1014.7 |
| 20260901161532 | 65 | 281 | 10.0 | 18.0 | 0.00 | 0.00 | 0.00 | 73 | 1014.7 |
| 20260901160754 | 65 | 252 | 10.0 | 18.0 | 0.00 | 0.00 | 0.00 | 74 | 1014.4 |
| 20260901160033 | 65 | 264 | 10.0 | 16.0 | 0.00 | 0.00 | 0.00 | 74 | 1014.4 |
| 20260901155533 | 65 | 226 | 9.0 | 18.0 | 0.00 | 0.00 | 0.00 | 73 | 1014.6 |
| 20260901155033 | 65 | 289 | 10.0 | 18.0 | 0.00 | 0.00 | 0.00 | 73 | 1014.6 |
| 20260901154532 | 65 | 237 | 10.0 | 18.0 | 0.00 | 0.00 | 0.00 | 73 | 1014.6 |
| 20260901154033 | 66 | 254 | 13.0 | 18.0 | 0.00 | 0.00 | 0.00 | 73 | 1014.6 |
| 20260901153533 | 66 | 258 | 10.0 | 20.0 | 0.00 | 0.00 | 0.00 | 73 | 1014.6 |
| 20260901153033 | 65 | 227 | 10.0 | 20.0 | 0.00 | 0.00 | 0.00 | 73 | 1014.6 |
| 20260901152532 | 65 | 238 | 9.0 | 17.0 | 0.00 | 0.00 | 0.00 | 73 | 1014.6 |
| 20260901152032 | 65 | 237 | 9.0 | 16.0 | 0.00 | 0.00 | 0.00 | 73 | 1014.5 |
| 20260901151534 | 65 | 288 | 8.0 | 16.0 | 0.00 | 0.00 | 0.00 | 72 | 1014.6 |
| 20260901151032 | 66 | 255 | 11.0 | 16.0 | 0.00 | 0.00 | 0.00 | 72 | 1014.6 |
| 20260901150800 | 66 | 254 | 8.0 | 15.0 | 0.00 | 0.00 | 0.00 | 73 | 1014.6 |
| 20260901150033 | 66 | 268 | 8.0 | 17.0 | 0.00 | 0.00 | 0.00 | 73 | 1014.6 |
| 20260901145531 | 66 | 241 | 8.0 | 17.0 | 0.00 | 0.00 | 0.00 | 72 | 1014.7 |
| 20260901145031 | 66 | 266 | 9.0 | 19.0 | 0.00 | 0.00 | 0.00 | 73 | 1014.7 |
| 20260901144531 | 66 | 258 | 12.0 | 20.0 | 0.00 | 0.00 | 0.00 | 72 | 1014.7 |
| 20260901144031 | 66 | 292 | 12.0 | 20.0 | 0.00 | 0.00 | 0.00 | 72 | 1014.7 |
| 20260901143530 | 66 | 274 | 11.0 | 18.0 | 0.00 | 0.00 | 0.00 | 73 | 1014.7 |
| 20260901143033 | 66 | 258 | 8.0 | 15.0 | 0.00 | 0.00 | 0.00 | 73 | 1014.8 |
| 20260901142531 | 66 | 247 | 10.0 | 15.0 | 0.00 | 0.00 | 0.00 | 73 | 1014.8 |
| 20260901142032 | 66 | 269 | 8.0 | 16.0 | 0.00 | 0.00 | 0.00 | 72 | 1014.8 |
| 20260901141531 | 66 | 248 | 9.0 | 16.0 | 0.00 | 0.00 | 0.00 | 72 | 1014.7 |
| 20260901141244 | 66 | 265 | 9.0 | 20.0 | 0.00 | 0.00 | 0.00 | 72 | 1014.7 |
| 20260901140528 | 66 | 274 | 11.0 | 20.0 | 0.00 | 0.00 | 0.00 | 71 | 1014.7 |
| 20260901140028 | 67 | 258 | 15.0 | 20.0 | 0.00 | 0.00 | 0.00 | 70 | 1014.7 |
| 20260901135529 | 67 | 259 | 12.0 | 18.0 | 0.00 | 0.00 | 0.00 | 70 | 1014.5 |
| 20260901135026 | 66 | 231 | 10.0 | 18.0 | 0.00 | 0.00 | 0.00 | 72 | 1014.6 |
| 20260901134527 | 67 | 257 | 10.0 | 19.0 | 0.00 | 0.00 | 0.00 | 70 | 1014.5 |
| 20260901134026 | 67 | 259 | 7.0 | 19.0 | 0.00 | 0.00 | 0.00 | 70 | 1014.6 |
| 20260901133527 | 67 | 289 | 11.0 | 17.0 | 0.00 | 0.00 | 0.00 | 69 | 1014.6 |
| 20260901133026 | 66 | 283 | 9.0 | 20.0 | 0.00 | 0.00 | 0.00 | 71 | 1014.7 |
| 20260901132524 | 66 | 248 | 12.0 | 20.0 | 0.00 | 0.00 | 0.00 | 70 | 1014.7 |
| 20260901132024 | 66 | 271 | 11.0 | 19.0 | 0.00 | 0.00 | 0.00 | 71 | 1014.8 |
| 20260901131524 | 66 | 238 | 9.0 | 18.0 | 0.00 | 0.00 | 0.00 | 71 | 1014.8 |
| 20260901131022 | 66 | 266 | 10.0 | 18.0 | 0.00 | 0.00 | 0.00 | 71 | 1014.8 |
| 20260901130745 | 66 | 282 | 7.0 | 18.0 | 0.00 | 0.00 | 0.00 | 71 | 1014.7 |
| 20260901130022 | 66 | 244 | 10.0 | 18.0 | 0.00 | 0.00 | 0.00 | 71 | 1014.7 |
| 20260901125525 | 66 | 257 | 9.0 | 19.0 | 0.00 | 0.00 | 0.00 | 71 | 1014.7 |
| 20260901125022 | 66 | 276 | 9.0 | 23.0 | 0.00 | 0.00 | 0.00 | 71 | 1014.8 |
| 20260901124518 | 66 | 233 | 13.0 | 23.0 | 0.00 | 0.00 | 0.00 | 71 | 1014.7 |
| 20260901124019 | 65 | 244 | 10.0 | 19.0 | 0.00 | 0.00 | 0.00 | 72 | 1014.6 |
| 20260901123522 | 65 | 275 | 11.0 | 19.0 | 0.00 | 0.00 | 0.00 | 72 | 1014.5 |
| 20260901123019 | 65 | 233 | 14.0 | 19.0 | 0.00 | 0.00 | 0.00 | 72 | 1014.5 |
| 20260901122517 | 65 | 272 | 11.0 | 18.0 | 0.00 | 0.00 | 0.00 | 73 | 1014.6 |
| 20260901122016 | 65 | 258 | 9.0 | 19.0 | 0.00 | 0.00 | 0.00 | 72 | 1014.6 |
| 20260901121513 | 65 | 262 | 10.0 | 19.0 | 0.00 | 0.00 | 0.00 | 72 | 1014.7 |
| 20260901121238 | 65 | 259 | 11.0 | 18.0 | 0.00 | 0.00 | 0.00 | 72 | 1014.7 |
| 20260901120734 | 65 | 259 | 12.0 | 18.0 | 0.00 | 0.00 | 0.00 | 72 | 1014.8 |
| 20260901120014 | 65 | 266 | 10.0 | 17.0 | 0.00 | 0.00 | 0.00 | 72 | 1014.9 |
| 20260901115512 | 65 | 258 | 11.0 | 18.0 | 0.00 | 0.00 | 0.00 | 72 | 1014.8 |
| 20260901115013 | 65 | 258 | 12.0 | 18.0 | 0.00 | 0.01 | 0.00 | 72 | 1014.9 |
| 20260901114513 | 65 | 286 | 10.0 | 19.0 | 0.00 | 0.01 | 0.00 | 72 | 1014.8 |
| 20260901114011 | 65 | 259 | 10.0 | 19.0 | 0.00 | 0.01 | 0.00 | 72 | 1014.9 |
| 20260901113511 | 65 | 261 | 7.0 | 19.0 | 0.00 | 0.01 | 0.00 | 71 | 1014.8 |
| 20260901113016 | 65 | 241 | 11.0 | 17.0 | 0.00 | 0.01 | 0.00 | 71 | 1014.7 |
| 20260901112508 | 65 | 266 | 8.0 | 20.0 | 0.00 | 0.01 | 0.00 | 72 | 1014.8 |
| 20260901112006 | 65 | 261 | 6.0 | 20.0 | 0.00 | 0.01 | 0.00 | 72 | 1014.6 |
| 20260901111511 | 65 | 257 | 12.0 | 17.0 | 0.00 | 0.01 | 0.00 | 71 | 1014.6 |
| 20260901111006 | 65 | 271 | 10.0 | 17.0 | 0.00 | 0.01 | 0.00 | 71 | 1014.6 |
| 20260901110506 | 64 | 258 | 10.0 | 20.0 | 0.00 | 0.01 | 0.00 | 71 | 1014.5 |
| 20260901110011 | 64 | 251 | 13.0 | 20.0 | 0.00 | 0.01 | 0.00 | 72 | 1014.6 |
| 20260901105505 | 64 | 259 | 9.0 | 18.0 | 0.00 | 0.01 | 0.00 | 72 | 1014.6 |
| 20260901105008 | 64 | 269 | 11.0 | 19.0 | 0.00 | 0.01 | 0.00 | 72 | 1014.6 |
| 20260901104513 | 64 | 290 | 8.0 | 19.0 | 0.00 | 0.01 | 0.00 | 73 | 1014.6 |
| 20260901104011 | 64 | 248 | 11.0 | 16.0 | 0.00 | 0.01 | 0.00 | 72 | 1014.6 |
| 20260901103510 | 64 | 250 | 7.0 | 16.0 | 0.00 | 0.01 | 0.00 | 72 | 1014.6 |
| 20260901103013 | 64 | 233 | 10.0 | 22.0 | 0.00 | 0.01 | 0.00 | 71 | 1014.7 |
| 20260901102506 | 65 | 233 | 12.0 | 23.0 | 0.00 | 0.01 | 0.00 | 70 | 1014.8 |
| 20260901102230 | 65 | 266 | 9.0 | 23.0 | 0.00 | 0.01 | 0.00 | 71 | 1014.8 |
| 20260901101503 | 64 | 234 | 9.0 | 16.0 | 0.00 | 0.01 | 0.00 | 70 | 1014.9 |
| 20260901101003 | 64 | 235 | 9.0 | 18.0 | 0.00 | 0.01 | 0.00 | 72 | 1014.8 |
| 20260901100726 | 64 | 257 | 9.0 | 18.0 | 0.00 | 0.01 | 0.00 | 72 | 1014.9 |
| 20260901100001 | 64 | 275 | 7.0 | 18.0 | 0.00 | 0.01 | 0.00 | 72 | 1014.9 |